Notices

What's New in latest Release from April 7th, 2021:

- Updated Glossary, including Speed of Maximum Gust, and Total Hourly Precipitation

- Updated national and regional climate services offices contacts and prices information

- Addition of station inventory lists for 1981-2010, 1971-2000, and 1961-1990 Normals.

If you haven't already, please take our survey and provide feedback about our website: https://eccc.sondage-survey.ca/f/LanguageSelection.aspx?s=442ca660-fcf1-47c0-95a9-59707d6fd709

Hourly Data Report for November 20, 2020

MUSKOKA
ONTARIO
Current Station Operator: NAVCAN

44°58'29.000" N
79°18'12.000" W
281.90 m
6115529
71532
YQA

Download Data

Hourly Data (November 2020)
Hourly Data Report for November 20, 2020
TIME
LST
Temp Definition
°C
Dew Point Definition
°C
Rel Hum Definition
%
Precip. Amount Definition
mm

Wind Dir Definition
10's deg

Wind Spd Definition
km/h
Visibility Definition
km
Stn Press Definition
kPa
Hmdx Definition


Wind Chill Definition


Weather Definition


00:00 8.5 1.4 61 0.0 18 13 16.1 98.07     LegendNANA
01:00 9.2 1.4 58 0.0 19 15 16.1 98.08     LegendNANA
02:00 9.3 1.2 57 0.0 19 13 16.1 98.10     LegendNANA
03:00 9.9 1.4 55 0.0 20 13 16.1 98.11     LegendNANA
04:00 10.4 1.3 53 0.0 20 13 16.1 98.12     LegendNANA
05:00 9.9 1.1 54 0.0 20 15 16.1 98.16     LegendNANA
06:00 9.5 1.4 57 0.0 18 11 16.1 98.17     LegendNANA
07:00 9.7 1.1 55 0.0 20 11 16.1 98.17     LegendNANA
08:00 10.4 1.0 52 0.0 19 17 16.1 98.12     LegendNANA
09:00 10.9 1.4 52 0.0 19 13 16.1 98.18     LegendNANA
10:00 11.4 1.7 51 0.0 19 11 16.1 98.19     LegendNANA
11:00 12.3 2.2 50 0.0 21 11 16.1 98.18     LegendNANA
12:00 13.4 2.5 48 0.0 25 21 16.1 98.17     LegendNANA
13:00 12.9 3.3 52 0.0 26 13 16.1 98.22     LegendNANA
14:00 12.4 3.9 56 0.0 27 17 16.1 98.26     LegendNANA
15:00 12.8 5.0 59 0.0 25 15 16.1 98.26     LegendNANA
16:00 10.6 4.8 67 0.0 29 17 16.1 98.42     LegendNANA
17:00 8.7 4.7 76 0.0 30 13 16.1 98.53     LegendNANA
18:00 7.4 4.2 80 0.0 29 17 16.1 98.62     LegendNANA
19:00 7.0 4.4 84 0.0 28 15 16.1 98.73     LegendNANA
20:00 6.3 2.2 75 0.0 30 21 16.1 98.82     LegendNANA
21:00 6.3 2.4 76 0.0 29 11 16.1 98.89     LegendNANA
22:00 5.5 -1.0 63 0.0 30 28 16.1 98.99     LegendNANA
23:00 4.7 -1.0 67 0.0 31 17 16.1 99.01     LegendNANA

Notes on Data Quality.

Legend

  • E = Estimated
  • M = Missing
  • NA = Not Available*
  • [empty] = Indicates an unobserved value
Date modified: